Flag for Uruguay Weather past 2 weeks in Canelones, Uruguay

Now
55 °F

Clear.


Feels Like: 55 °F
Forecast: 52 / 78 °F
Wind: No wind

Location: Carrasco

Current Time: Aug 20, 2014 at 2:29:19 AM

Latest Report: Aug 20, 2014 at 2:00 AM


Visibility: 10 mi

Pressure: 30.12 "Hg

Humidity: 94%

Dew point: 54 °F

Location of CanelonesLocation

Historic Weather in Canelones — Graph

°F

Canelones temperature yesterday

Maximum temperature yesterday: 75 °F (at 2:00 PM)
Minimum temperature yesterday: 50 °F (at 4:00 AM)
Average temperature yesterday: 61 °F

Past Weeks' High & Low Weather Summary

 TemperatureHumidityPressure
High77 °F (Aug 18, 3:00 PM)100% (Aug 8, 9:00 AM)30.39 "Hg (Aug 8, 9:00 AM)
Low37 °F (Aug 12, 6:00 AM)22% (Aug 14, 3:00 PM)29.83 "Hg (Aug 6, 3:00 PM)
Average53 °F69%30.14 "Hg
* Reported Aug 5 1:00 AM — Aug 20 1:00 AM, Canelones, Weather by CustomWeather, © 2014

Note: Actual official high and low records may vary slightly from our data, if they occured in-between our weather recording intervals... More about our weather records

Advertising

Canelones weather history for previous 24 hours

 ConditionsComfort  
Time TempWeatherWind HumidityBarometerVisibility
1:00 AM
Aug 20
57 °FClear.No wind94%30.12 "Hg10 mi
12:00 AM55 °FClear.No wind94%30.12 "Hg10 mi
11:00 PM
Aug 19
55 °FClear.No wind94%30.12 "Hg10 mi
10:00 PM57 °FClear.3 mph94%30.12 "Hg10 mi
9:00 PM57 °FClear.5 mph94%30.12 "Hg10 mi
8:00 PM59 °FClear.7 mph88%30.09 "Hg10 mi
7:00 PM59 °FClear.7 mph88%30.09 "Hg10 mi
6:00 PM63 °FClear.7 mph77%30.09 "Hg10 mi
5:00 PM64 °FSunny.10 mph73%30.09 "Hg10 mi
4:00 PM73 °FSunny.8 mph57%30.07 "Hg10 mi
3:00 PM75 °FSunny.3 mph57%30.07 "Hg10 mi
2:00 PM75 °FSunny.6 mph57%30.09 "Hg10 mi
1:00 PM73 °FSunny.8 mph57%30.09 "Hg10 mi
12:00 PM73 °FPassing clouds.8 mph57%30.09 "HgN/A
11:00 AM70 °FSunny.7 mph60%30.09 "Hg10 mi
10:00 AM63 °FSunny.8 mph73%30.09 "Hg10 mi
9:00 AM55 °FSunny.7 mph82%30.09 "Hg10 mi
8:00 AM52 °FSunny.7 mph88%30.07 "Hg10 mi
7:00 AM50 °FSunny.6 mph88%30.07 "Hg10 mi
5:00 AM50 °FClear.6 mph82%30.04 "Hg10 mi
4:00 AM50 °FClear.6 mph82%30.04 "Hg10 mi
3:00 AM52 °FClear.5 mph88%30.07 "Hg10 mi
2:00 AM54 °FClear.7 mph82%30.04 "Hg10 mi
Weather by CustomWeather, © 2014

See weather overviewHow to use our weather pages